Regional Weather Roundup
Issued by NWS Newport/Morehead, NC

Home | Current Version | Previous Version | Text Only | Print | Product List | Glossary On
Versions: 1 2 3 4 5 6 7 8 9 10 11 12 13 14 15 16 17 18 19 20 21 22 23 24 25 26 27 28 29 30 31 32 33 34 35 36 37 38 39 40 41 42 43 44 45 46 47 48 49 50
000
ASUS42 KMHX 181122
RWRMHX
WEATHER ROUNDUP FOR EASTERN NORTH CAROLINA
NATIONAL WEATHER SERVICE NEWPORT/MOREHEAD CITY NC
700 AM EDT THU SEP 18 2014

NOTE: "FAIR" INDICATES FEW OR NO CLOUDS BELOW 12,000 FEET
WITH NO SIGNIFICANT WEATHER AND/OR OBSTRUCTIONS TO VISIBILITY

NCZ015>017-031-032-045>047-102-103-181200-
NORTH COAST

CITY           SKY/WX    TMP DP  RH WIND       PRES   REMARKS
EDENTON        PTCLDY    62  60  94 N3        29.97R
ELIZABETH CITY PTCLDY    65  60  84 N7        29.97
KITTY HAWK     PTSUNNY   70  58  65 NE7       29.95R
MANTEO         CLEAR     69  59  70 NE9       29.96R

$$

NCZ045>047-081-094-103-104-181200-
CENTRAL COAST

CITY           SKY/WX    TMP DP  RH WIND       PRES   REMARKS
FRISCO         CLEAR     68  61  78 NE6       29.93R
SWANQUARTER      N/A     66 N/A N/A NE2       29.91S

$$

NCZ095-097-098-100-101-181200-
SOUTHERN COAST

CITY           SKY/WX    TMP DP  RH WIND       PRES   REMARKS
BEAUFORT       MOCLDY    70  64  81 NE5       29.93R
CEDAR ISLAND     N/A     73 N/A N/A NE12G18   29.97S
JACKSONVILLE   PTCLDY    66  63  90 N3        29.94R
NEWPORT        NOT AVBL
PINEY ISLAND   SUNNY     75  63  66 NE13      29.93R
WILMINGTON     PTCLDY    66  64  93 NE8       29.92R


$$

NCZ011>013-027>030-043-044-078>080-089-090>093-098-181200-
COASTAL PLAIN

CITY           SKY/WX    TMP DP  RH WIND       PRES   REMARKS
AHOSKIE        PTCLDY    57  55  95 CALM      29.99R
CLINTON        CLOUDY    64  64  97 NE5       29.96R
ELIZABETHTOWN  PTCLDY    64  64 100 CALM      29.95R
GOLDSBORO      PTCLDY    62  62  98 CALM      29.95R
GREENVILLE     MOCLDY    61  61 100 N3        29.99R
HAVELOCK       PTCLDY    68  64  87 NE6       29.94R
KENANSVILLE    MOCLDY    63  63 100 CALM      29.97R
KINSTON        CLEAR     61  61 100 MISG      29.97R FOG
NEW BERN       MOCLDY    68  62  81 NE8       29.95R
RICHLANDS      CLOUDY    64  61  88 CALM      29.95R
ROANOKE RAPIDS NOT AVBL
ROCKY MOUNT    CLEAR     59  58  96 NE3       29.98R
WASHINGTON     CLOUDY    62  61  96 CALM      29.97R
WHITEVILLE     CLOUDY    67  64  91 NE5       29.93S

$$

AMZ130-135-150-152-154-156-158-170-250-252-270-ANZ085-086-088-633-658-670-181200-
MARINE OBSERVATIONS

STATION/POSITION TIME  TEMP    WIND        PRES    WAVE   SWELL
                       AIR SEA DIR/SP/G            HT/PER HT/PER
                 (UTC) (F)     (DEG/KT/KT) (MB)    (FT/S) (FT/S)
CHESAPEAKE LIGHT 1100   70      30/ 13/ 14 1015.4
BUOY 44014       1100   71 77   10/ 16/ 17 1013.8    4/13   3/13
DUCK             1100   71 75   40/ 13/ 16 1013.7
2E DUCK          1100                        N/A     4/13   3/13
OREGON INLET     1100   71 74   20/ 12/ 14 1013.9
BUOY 44095       1100      76                N/A     5/13   3/13
20E OREGON INLET NOT AVBL
HATTERAS CG      1100   72 76   40/  9/ 12 1013.9
DIAMOND BUOY     1100   75      10/ 17/ 19 1012.7    6/ 8   3/14
CAPE LOOKOUT     1100   75      40/ 16/ 17 1013.0
BEAUFORT LAB     1100   71 79   20/  4/  5 1012.8
30 SE NEW RIVER  1100   78 82   40/ 16/ 19 1012.6    4/13   3/13
5 SE WRIGHTSVILL 1100   71 81   30/ 16/ 17   N/A
BUOY 41002       1044   78 82  340/ 12/ 14 1012.0    4/12   3/12
BUOY 41004       1100   79 83   10/  6/  8 1012.1    4/11   3/11

$$



USA.gov is the U.S. government's official web portal to all federal, state and local government web resources and services.